Terminal Aerodrome Forecast
Issued by NWS

Home | Current Version | Previous Version | Graphics & Text | Print | Product List | Glossary On
Versions: 1 2 3 4 5 6 7 8 9 10 11 12 13 14 15 16 17 18 19 20 21
898
FTUS42 KMHX 211408 AAA
TAFOAJ
TAF AMD
KOAJ 211408Z 2114/2212 01005KT P6SM OVC005
     FM211530 05006KT P6SM BKN020
     FM212300 13006KT P6SM BKN250
      AMD LTD TO CLD VIS AND WIND=

USA.gov is the U.S. government's official web portal to all federal, state and local government web resources and services.